• In Uzbekistan
  • List of Countries
  • For 7 days
  • Water Temperature
  • Satellite Maps
  • Weather Map
  • Weather Widgets
  • user-avatar
    Login

    Hourly Weather Solwezi

    Today, 20 October, Saturday

    Time Temperature Precipitation Wind Pressure Humidity
    00:00 +29°C° 0 mm 2 mps 712 mmHg 18%
    01:00 +29°C° 0 mm 2 mps 712 mmHg 17%
    02:00 +29°C° 0 mm 2 mps 712 mmHg 16%
    03:00 +28°C° 0 mm 2 mps 712 mmHg 16%
    04:00 +28°C° 0 mm 2 mps 713 mmHg 16%
    05:00 +27°C° 0 mm 2 mps 713 mmHg 17%
    06:00 +28°C° 0 mm 2 mps 713 mmHg 17%
    07:00 +29°C° 0 mm 2 mps 714 mmHg 18%
    08:00 +30°C° 0 mm 1 mps 714 mmHg 18%
    09:00 +32°C° 0 mm 2 mps 715 mmHg 18%
    10:00 +35°C° 0 mm 2 mps 715 mmHg 17%
    11:00 +36°C° 0 mm 3 mps 715 mmHg 16%
    12:00 +37°C° 0 mm 3 mps 714 mmHg 16%
    13:00 +38°C° 0 mm 3 mps 714 mmHg 15%
    14:00 +39°C° 0 mm 3 mps 713 mmHg 14%
    15:00 +39°C° 0 mm 3 mps 713 mmHg 15%
    16:00 +38°C° 0 mm 3 mps 712 mmHg 15%
    17:00 +38°C° 0 mm 3 mps 712 mmHg 15%
    18:00 +37°C° 0 mm 2 mps 712 mmHg 17%
    19:00 +35°C° 0 mm 2 mps 712 mmHg 19%
    20:00 +32°C° 0 mm 2 mps 712 mmHg 21%
    21:00 +32°C° 0 mm 2 mps 713 mmHg 22%
    22:00 +31°C° 0 mm 1 mps 713 mmHg 24%
    23:00 +30°C° 0 mm 1 mps 713 mmHg 25%

    Tomorrow, 21 October, Sunday

    Time Temperature Precipitation Wind Pressure Humidity
    00:00 +30°C° 0 mm 1 mps 712 mmHg 28%
    01:00 +29°C° 0 mm 1 mps 712 mmHg 30%
    02:00 +29°C° 0 mm 1 mps 712 mmHg 32%
    03:00 +29°C° 0 mm 1 mps 712 mmHg 31%
    04:00 +29°C° 0 mm 2 mps 712 mmHg 31%
    05:00 +29°C° 0 mm 2 mps 712 mmHg 30%
    06:00 +30°C° 0 mm 2 mps 712 mmHg 27%
    07:00 +31°C° 0 mm 3 mps 713 mmHg 24%
    08:00 +33°C° 0 mm 3 mps 713 mmHg 21%
    09:00 +35°C° 0 mm 4 mps 714 mmHg 18%
    10:00 +37°C° 0 mm 4 mps 714 mmHg 16%
    11:00 +40°C° 0 mm 4 mps 714 mmHg 14%
    12:00 +40°C° 0 mm 4 mps 713 mmHg 13%
    13:00 +41°C° 0 mm 4 mps 712 mmHg 13%
    14:00 +42°C° 0 mm 4 mps 711 mmHg 12%
    15:00 +41°C° 0 mm 4 mps 711 mmHg 12%
    16:00 +41°C° 0 mm 4 mps 711 mmHg 12%
    17:00 +40°C° 0 mm 3 mps 711 mmHg 12%
    18:00 +38°C° 0 mm 3 mps 711 mmHg 14%
    19:00 +36°C° 0 mm 2 mps 711 mmHg 16%
    20:00 +33°C° 0 mm 1 mps 712 mmHg 18%
    21:00 +32°C° 0 mm 1 mps 712 mmHg 18%
    22:00 +32°C° 0 mm 1 mps 712 mmHg 18%
    23:00 +30°C° 0 mm 0 mps 712 mmHg 18%

    Day after tomorrow, 22 October, Monday

    Time Temperature Precipitation Wind Pressure Humidity
    00:00 +32°C° 0 mm 1 mps 712 mmHg 18%
    01:00 +32°C° 0 mm 2 mps 712 mmHg 17%
    02:00 +32°C° 0 mm 2 mps 711 mmHg 16%
    03:00 +31°C° 0 mm 2 mps 711 mmHg 17%
    04:00 +31°C° 0 mm 3 mps 711 mmHg 18%
    05:00 +30°C° 0 mm 3 mps 711 mmHg 19%
    06:00 +31°C° 0 mm 3 mps 712 mmHg 18%
    07:00 +33°C° 0 mm 3 mps 712 mmHg 17%
    08:00 +34°C° 0 mm 3 mps 713 mmHg 16%
    09:00 +36°C° 0 mm 4 mps 713 mmHg 15%
    10:00 +39°C° 0 mm 5 mps 713 mmHg 13%
    11:00 +41°C° 0 mm 5 mps 714 mmHg 11%
    12:00 +42°C° 0 mm 5 mps 713 mmHg 12%
    13:00 +42°C° 0 mm 4 mps 712 mmHg 12%
    14:00 +43°C° 0 mm 4 mps 711 mmHg 13%
    15:00 +42°C° 0 mm 3 mps 711 mmHg 14%
    16:00 +42°C° 0 mm 3 mps 711 mmHg 14%
    17:00 +42°C° 0 mm 3 mps 710 mmHg 15%
    18:00 +39°C° 0 mm 3 mps 711 mmHg 17%
    19:00 +37°C° 0 mm 3 mps 711 mmHg 19%
    20:00 +36°C° 0 mm 3 mps 711 mmHg 21%
    21:00 +35°C° 0 mm 3 mps 712 mmHg 23%
    22:00 +35°C° 0 mm 3 mps 712 mmHg 26%
    23:00 +34°C° 0 mm 4 mps 712 mmHg 28%

    23 October, Tuesday

    Time Temperature Precipitation Wind Pressure Humidity
    00:00 +34°C° 0 mm 4 mps 712 mmHg 31%
    01:00 +33°C° 0 mm 3 mps 712 mmHg 34%
    02:00 +33°C° 0 mm 3 mps 711 mmHg 38%
    03:00 +31°C° 0 mm 3 mps 711 mmHg 40%
    04:00 +30°C° 0 mm 2 mps 711 mmHg 42%
    05:00 +30°C° 0 mm 2 mps 711 mmHg 44%
    06:00 +31°C° 0.4 mm 1 mps 712 mmHg 43%
    07:00 +32°C° 0.4 mm 1 mps 713 mmHg 41%
    08:00 +32°C° 0.4 mm 1 mps 714 mmHg 40%
    09:00 +34°C° 0 mm 1 mps 714 mmHg 36%
    10:00 +37°C° 0 mm 2 mps 714 mmHg 31%
    11:00 +39°C° 0 mm 2 mps 714 mmHg 27%
    12:00 +39°C° 0 mm 3 mps 713 mmHg 25%
    13:00 +40°C° 0 mm 3 mps 712 mmHg 23%
    14:00 +40°C° 0 mm 3 mps 712 mmHg 21%
    15:00 +40°C° 0 mm 3 mps 712 mmHg 22%
    16:00 +40°C° 0 mm 3 mps 712 mmHg 22%
    17:00 +39°C° 0 mm 3 mps 712 mmHg 23%
    18:00 +38°C° 0 mm 3 mps 712 mmHg 25%
    19:00 +37°C° 0 mm 3 mps 712 mmHg 28%
    20:00 +36°C° 0 mm 3 mps 712 mmHg 30%
    21:00 +35°C° 0 mm 3 mps 712 mmHg 32%
    22:00 +34°C° 0 mm 3 mps 712 mmHg 35%
    23:00 +34°C° 0 mm 3 mps 712 mmHg 37%

    24 October, Wednesday

    Time Temperature Precipitation Wind Pressure Humidity
    00:00 +32°C° 0 mm 2 mps 712 mmHg 39%
    01:00 +31°C° 0 mm 1 mps 711 mmHg 41%
    02:00 +30°C° 0 mm 1 mps 711 mmHg 43%
    03:00 +30°C° 0 mm 1 mps 711 mmHg 44%
    04:00 +28°C° 0 mm 0 mps 711 mmHg 45%
    05:00 +27°C° 0 mm 0 mps 711 mmHg 46%
    06:00 +29°C° 0.2 mm 0 mps 712 mmHg 43%
    07:00 +32°C° 0.2 mm 1 mps 713 mmHg 40%
    08:00 +33°C° 0.2 mm 1 mps 713 mmHg 37%
    09:00 +34°C° 0.1 mm 1 mps 714 mmHg 35%
    10:00 +35°C° 0.1 mm 1 mps 714 mmHg 32%
    11:00 +37°C° 0.1 mm 1 mps 714 mmHg 30%
    12:00 +38°C° 0 mm 2 mps 713 mmHg 28%
    13:00 +39°C° 0 mm 2 mps 712 mmHg 27%
    14:00 +39°C° 0 mm 2 mps 711 mmHg 25%
    15:00 +39°C° 0 mm 2 mps 711 mmHg 25%
    16:00 +39°C° 0 mm 2 mps 711 mmHg 25%
    17:00 +39°C° 0 mm 2 mps 711 mmHg 25%
    18:00 +37°C° 0 mm 1 mps 711 mmHg 27%
    19:00 +36°C° 0 mm 1 mps 711 mmHg 30%
    20:00 +35°C° 0 mm 1 mps 712 mmHg 32%
    21:00 +34°C° 0 mm 1 mps 712 mmHg 33%
    22:00 +34°C° 0 mm 1 mps 711 mmHg 34%
    23:00 +33°C° 0 mm 1 mps 711 mmHg 35%

    25 October, Thursday

    Time Temperature Precipitation Wind Pressure Humidity
    00:00 +32°C° 0 mm 1 mps 711 mmHg 37%
    01:00 +30°C° 0 mm 0 mps 711 mmHg 39%
    02:00 +29°C° 0 mm 0 mps 710 mmHg 41%
    03:00 +31°C° 0.1 mm 1 mps 711 mmHg 41%
    04:00 +31°C° 0.1 mm 1 mps 711 mmHg 41%
    05:00 +31°C° 0.1 mm 1 mps 711 mmHg 41%
    06:00 +32°C° 0.1 mm 1 mps 712 mmHg 39%
    07:00 +33°C° 0.1 mm 1 mps 713 mmHg 36%
    08:00 +34°C° 0.1 mm 1 mps 713 mmHg 34%
    09:00 +36°C° 0.2 mm 2 mps 713 mmHg 31%
    10:00 +37°C° 0.2 mm 2 mps 713 mmHg 29%
    11:00 +38°C° 0.2 mm 3 mps 713 mmHg 27%
    12:00 +39°C° 0 mm 3 mps 713 mmHg 24%
    13:00 +40°C° 0 mm 3 mps 712 mmHg 21%
    14:00 +42°C° 0 mm 3 mps 711 mmHg 19%
    15:00 +42°C° 0 mm 3 mps 711 mmHg 17%
    16:00 +42°C° 0 mm 3 mps 710 mmHg 16%
    17:00 +42°C° 0 mm 4 mps 710 mmHg 15%
    18:00 +39°C° 0 mm 3 mps 710 mmHg 17%
    19:00 +38°C° 0 mm 3 mps 711 mmHg 19%
    20:00 +37°C° 0 mm 2 mps 711 mmHg 21%
    21:00 +36°C° 0 mm 2 mps 711 mmHg 22%
    22:00 +35°C° 0 mm 2 mps 711 mmHg 24%
    23:00 +34°C° 0 mm 2 mps 711 mmHg 26%
    Show more